Location: Castiglione Fibocchi
(43.5333°N, 11.7667°E)
Time: 16:44:54
(UTC+00:00)

SJ 16-02 - Pass Details

Date: 15 August 2020
Orbit: 607 x 616 km, 75.0° (Epoch: 20 September)

Event Time Altitude Azimuth Distance (km) Brightness Sun altitude
Exits shadow 00:09:52 32° 20° (NNE) 1,060 3.0 -31.3°
Drops below altitude 10° 00:12:16 10° 19° (NNE) 1,977 4.8 -31.2°
Sets 00:14:31 0° 20° (NNE) 2,884 5.9 -31.0°
